TimeMST,TemperatureF,Dew PointF,Humidity,Sea Level PressureIn,VisibilityMPH,Wind Direction,Wind SpeedMPH,Gust SpeedMPH,PrecipitationIn,Events,Conditions,WindDirDegrees,DateUTC
12:15 AM,35.6,28.4,75,29.91,10.0,SE,6.9,-,N/A,,Clear,140,2012-12-01 07:15:00
12:35 AM,35.6,28.4,75,29.91,10.0,SE,6.9,-,N/A,,Clear,140,2012-12-01 07:35:00
12:55 AM,35.6,28.4,75,29.91,10.0,SE,9.2,-,N/A,,Clear,130,2012-12-01 07:55:00
1:15 AM,35.6,28.4,75,29.90,10.0,SE,11.5,-,N/A,,Clear,140,2012-12-01 08:15:00
1:35 AM,35.6,28.4,75,29.90,10.0,SSE,10.4,-,N/A,,Scattered Clouds,150,2012-12-01 08:35:00
1:55 AM,35.6,28.4,75,29.89,10.0,SSE,12.7,-,N/A,,Clear,150,2012-12-01 08:55:00
2:15 AM,37.4,28.4,70,29.90,10.0,SSE,11.5,-,N/A,,Clear,160,2012-12-01 09:15:00
2:35 AM,35.6,28.4,75,29.91,10.0,SSE,8.1,-,N/A,,Clear,150,2012-12-01 09:35:00
2:55 AM,35.6,28.4,75,29.91,10.0,SSE,10.4,17.3,N/A,,Clear,150,2012-12-01 09:55:00
3:15 AM,35.6,30.2,81,29.91,10.0,SE,11.5,-,N/A,,Clear,140,2012-12-01 10:15:00
3:35 AM,33.8,30.2,87,29.92,10.0,SSE,11.5,17.3,N/A,,Clear,150,2012-12-01 10:35:00
3:55 AM,37.4,30.2,75,29.92,10.0,SSE,10.4,18.4,N/A,,Clear,150,2012-12-01 10:55:00
4:15 AM,35.6,32.0,87,29.93,10.0,South,12.7,-,N/A,,Clear,170,2012-12-01 11:15:00
4:35 AM,35.6,32.0,87,29.93,10.0,SSE,9.2,-,N/A,,Clear,160,2012-12-01 11:35:00
4:55 AM,37.4,30.2,75,29.95,10.0,SW,11.5,-,N/A,,Clear,220,2012-12-01 11:55:00
5:15 AM,37.4,28.4,70,29.94,10.0,SW,16.1,23.0,N/A,,Clear,220,2012-12-01 12:15:00
5:35 AM,37.4,28.4,70,29.94,10.0,South,11.5,19.6,N/A,,Scattered Clouds,170,2012-12-01 12:35:00
5:55 AM,35.6,30.2,81,29.95,10.0,SW,12.7,18.4,N/A,,Clear,220,2012-12-01 12:55:00
6:15 AM,39.2,28.4,65,29.96,10.0,SW,18.4,26.5,N/A,,Mostly Cloudy,230,2012-12-01 13:15:00
6:35 AM,37.4,28.4,70,29.96,10.0,SW,17.3,23.0,N/A,,Scattered Clouds,230,2012-12-01 13:35:00
6:55 AM,37.4,26.6,65,29.97,10.0,SW,16.1,27.6,N/A,,Scattered Clouds,220,2012-12-01 13:55:00
7:15 AM,37.4,28.4,70,29.97,10.0,SW,17.3,-,N/A,,Scattered Clouds,220,2012-12-01 14:15:00
7:35 AM,37.4,26.6,65,29.98,10.0,SW,13.8,-,N/A,,Scattered Clouds,220,2012-12-01 14:35:00
7:55 AM,37.4,26.6,65,29.99,10.0,SW,15.0,-,N/A,,Overcast,230,2012-12-01 14:55:00
8:15 AM,37.4,26.6,65,30.00,10.0,WSW,19.6,-,N/A,,Mostly Cloudy,240,2012-12-01 15:15:00
8:35 AM,37.4,23.0,56,30.00,10.0,SW,23.0,36.8,N/A,,Scattered Clouds,220,2012-12-01 15:35:00
8:55 AM,37.4,24.8,60,30.00,10.0,SW,19.6,27.6,N/A,,Scattered Clouds,220,2012-12-01 15:55:00
9:15 AM,37.4,23.0,56,30.01,10.0,SW,23.0,27.6,N/A,,Clear,230,2012-12-01 16:15:00
9:35 AM,39.2,23.0,52,30.02,10.0,WSW,24.2,28.8,N/A,,Clear,250,2012-12-01 16:35:00
9:55 AM,39.2,23.0,52,30.04,10.0,WSW,15.0,-,N/A,,Clear,240,2012-12-01 16:55:00
10:15 AM,39.2,23.0,52,30.04,10.0,WSW,12.7,-,N/A,,Clear,240,2012-12-01 17:15:00
10:35 AM,41.0,23.0,49,30.04,10.0,WSW,13.8,-,N/A,,Clear,240,2012-12-01 17:35:00
10:55 AM,39.2,23.0,52,30.04,10.0,SW,11.5,-,N/A,,Clear,220,2012-12-01 17:55:00
11:15 AM,41.0,24.8,53,30.04,10.0,SW,13.8,25.3,N/A,,Clear,220,2012-12-01 18:15:00
11:35 AM,41.0,24.8,53,30.03,10.0,SSW,11.5,21.9,N/A,,Clear,200,2012-12-01 18:35:00
11:55 AM,42.8,24.8,49,30.02,10.0,SSE,10.4,18.4,N/A,,Clear,150,2012-12-01 18:55:00
12:15 PM,42.8,24.8,49,30.02,10.0,SE,9.2,-,N/A,,Clear,130,2012-12-01 19:15:00
12:35 PM,42.8,24.8,49,30.01,10.0,SE,10.4,-,N/A,,Scattered Clouds,130,2012-12-01 19:35:00
12:55 PM,42.8,26.6,53,30.01,10.0,SE,11.5,-,N/A,,Scattered Clouds,140,2012-12-01 19:55:00
1:15 PM,42.8,26.6,53,30.00,10.0,SSE,13.8,-,N/A,,Clear,150,2012-12-01 20:15:00
1:35 PM,41.0,24.8,53,30.00,10.0,SSE,15.0,-,N/A,,Clear,150,2012-12-01 20:35:00
1:55 PM,41.0,23.0,49,30.00,10.0,SSE,9.2,-,N/A,,Scattered Clouds,150,2012-12-01 20:55:00
2:15 PM,41.0,23.0,49,30.00,10.0,SSE,9.2,-,N/A,,Overcast,150,2012-12-01 21:15:00
2:35 PM,41.0,23.0,49,30.00,10.0,SSE,13.8,21.9,N/A,,Overcast,150,2012-12-01 21:35:00
2:55 PM,39.2,28.4,65,30.01,10.0,SW,13.8,-,N/A,,Overcast,230,2012-12-01 21:55:00
3:15 PM,39.2,28.4,65,30.00,10.0,SW,17.3,23.0,N/A,,Mostly Cloudy,220,2012-12-01 22:15:00
3:35 PM,41.0,26.6,57,30.00,10.0,SSW,9.2,24.2,N/A,,Clear,200,2012-12-01 22:35:00
3:55 PM,41.0,26.6,57,30.00,10.0,South,16.1,20.7,N/A,,Clear,170,2012-12-01 22:55:00
4:15 PM,39.2,28.4,65,30.01,10.0,ESE,5.8,-,N/A,,Clear,110,2012-12-01 23:15:00
4:35 PM,39.2,26.6,61,30.01,10.0,NE,9.2,-,N/A,,Clear,50,2012-12-01 23:35:00
4:55 PM,39.2,26.6,61,30.01,10.0,SSE,6.9,-,N/A,,Clear,150,2012-12-01 23:55:00
5:35 PM,39.2,23.0,52,30.00,10.0,South,13.8,-,N/A,,Clear,170,2012-12-02 00:35:00
5:55 PM,39.2,23.0,52,30.00,10.0,South,9.2,16.1,N/A,,Clear,170,2012-12-02 00:55:00
6:35 PM,37.4,24.8,60,30.00,10.0,SSE,6.9,-,N/A,,Clear,150,2012-12-02 01:35:00
6:55 PM,37.4,26.6,65,29.99,10.0,SSE,18.4,-,N/A,,Clear,160,2012-12-02 01:55:00
7:35 PM,35.6,28.4,75,30.02,10.0,ESE,5.8,-,N/A,,Clear,110,2012-12-02 02:35:00
7:55 PM,35.6,28.4,75,30.00,10.0,SE,8.1,-,N/A,,Clear,140,2012-12-02 02:55:00
8:15 PM,35.6,26.6,70,30.01,10.0,SE,11.5,-,N/A,,Clear,130,2012-12-02 03:15:00
8:35 PM,37.4,26.6,65,30.00,10.0,SSE,15.0,21.9,N/A,,Clear,160,2012-12-02 03:35:00
8:55 PM,37.4,26.6,65,30.00,10.0,SSE,8.1,19.6,N/A,,Clear,150,2012-12-02 03:55:00
9:15 PM,37.4,26.6,65,30.01,10.0,SSE,5.8,-,N/A,,Clear,150,2012-12-02 04:15:00
9:35 PM,37.4,26.6,65,30.00,10.0,SSE,6.9,-,N/A,,Clear,150,2012-12-02 04:35:00
9:55 PM,37.4,26.6,65,30.00,10.0,SSE,4.6,-,N/A,,Clear,150,2012-12-02 04:55:00
10:15 PM,35.6,26.6,70,29.99,10.0,SSE,13.8,-,N/A,,Clear,150,2012-12-02 05:15:00
10:35 PM,35.6,26.6,70,29.99,10.0,SSE,13.8,23.0,N/A,,Clear,150,2012-12-02 05:35:00
10:55 PM,37.4,26.6,65,29.98,10.0,SSE,15.0,25.3,N/A,,Clear,160,2012-12-02 05:55:00
11:15 PM,35.6,26.6,70,29.98,10.0,South,17.3,-,N/A,,Clear,170,2012-12-02 06:15:00
11:35 PM,35.6,26.6,70,29.99,10.0,SSE,12.7,20.7,N/A,,Clear,150,2012-12-02 06:35:00
11:55 PM,35.6,26.6,70,29.99,10.0,SSE,9.2,-,N/A,,Clear,150,2012-12-02 06:55:00